DW9356 Weather Reports


Display with metric or nautical units.
time (UTC)temp
F
wind
direction
speed
MPH
gust
MPH
rain 1hr
in
rain 24hr
in
rain mn
in
humidity
%
barometer
mb
20210417044853 63 23 4.0 10.0 0.00 0.05 0.05 92 1010.9
20210417044232 63 15 4.0 10.0 0.00 0.05 0.05 92 1010.9
20210417043729 63 11 4.0 10.0 0.00 0.05 0.05 92 1010.9
20210417043225 63 56 4.0 10.0 0.00 0.05 0.05 92 1010.8
20210417042826 63 328 5.0 10.0 0.00 0.05 0.05 92 1010.9
20210417042422 63 333 4.0 12.0 0.00 0.05 0.05 93 1010.7
20210417041639 63 5 4.0 12.0 0.00 0.05 0.05 93 1010.8
20210417041107 63 340 3.0 9.0 0.00 0.05 0.05 94 1010.8
20210417040537 63 298 3.0 8.0 0.00 0.05 0.05 94 1010.8
20210417040037 63 316 3.0 6.0 0.00 0.05 0.05 94 1010.9
20210417035656 64 321 4.0 9.0 0.00 0.05 0.05 94 1010.8
20210417035043 64 340 4.0 9.0 0.00 0.05 0.05 94 1010.8
20210417034436 64 341 3.0 9.0 0.00 0.05 0.05 94 1010.8
20210417033932 64 27 3.0 7.0 0.00 0.05 0.05 94 1010.8
20210417033421 64 26 3.0 8.0 0.00 0.05 0.05 94 1010.7
20210417032846 64 36 4.0 8.0 0.00 0.05 0.05 94 1010.7
20210417032441 64 348 4.0 8.0 0.00 0.05 0.05 94 1010.7
20210417031831 64 21 4.0 8.0 0.00 0.05 0.05 94 1010.8
20210417031254 64 28 4.0 8.0 0.00 0.05 0.05 94 1010.6
20210417030718 64 323 4.0 8.0 0.01 0.05 0.05 95 1010.6
20210417030156 64 9 3.0 8.0 0.01 0.05 0.05 95 1010.5
20210417025818 65 30 3.0 8.0 0.01 0.05 0.05 95 1010.4
20210417025345 65 27 3.0 8.0 0.01 0.05 0.05 95 1010.3
20210417024634 65 16 4.0 8.0 0.01 0.05 0.05 95 1010.2
20210417024107 65 57 3.0 8.0 0.01 0.05 0.05 95 1010.3
20210417023617 65 23 3.0 6.0 0.01 0.05 0.05 95 1010.0
20210417023042 65 56 3.0 9.0 0.01 0.05 0.05 94 1010.0
20210417022758 65 291 3.0 9.0 0.01 0.05 0.05 95 1009.8
20210417022320 66 30 4.0 9.0 0.01 0.05 0.05 95 1009.8
20210417021537 66 47 3.0 9.0 0.01 0.05 0.05 94 1009.7
20210417021040 66 0 3.0 10.0 0.00 0.04 0.05 95 1009.6
20210417020538 66 302 4.0 10.0 0.00 0.04 0.04 95 1009.5
20210417015957 67 44 4.0 9.0 0.00 0.04 0.04 95 1009.3
20210417015744 67 37 4.0 9.0 0.00 0.04 0.04 95 1009.2
20210417014952 67 15 4.0 9.0 0.00 0.04 0.04 95 1009.1
20210417014350 67 37 4.0 12.0 0.00 0.04 0.04 95 1008.9
20210417013837 67 22 3.0 12.0 0.00 0.04 0.04 95 1008.8
20210417013312 67 9 4.0 8.0 0.00 0.04 0.04 95 1008.7
20210417012958 67 19 4.0 8.0 0.00 0.04 0.04 95 1008.6
20210417012839 67 338 4.0 8.0 0.00 0.04 0.04 95 1008.4
20210417011716 67 19 4.0 8.0 0.00 0.04 0.04 95 1008.3
20210417011222 68 70 5.0 12.0 0.00 0.04 0.04 95 1008.4
20210417010648 68 34 5.0 12.0 0.00 0.04 0.04 94 1008.2
20210417010248 68 24 4.0 9.0 0.00 0.04 0.04 94 1008.1
20210417005938 69 30 3.0 9.0 0.00 0.04 0.04 94 1008.0
20210417005459 69 92 3.0 7.0 0.00 0.04 0.04 94 1008.0
20210417004547 69 46 2.0 7.0 0.00 0.04 0.04 94 1008.0
20210417004039 69 0 3.0 7.0 0.00 0.04 0.04 94 1007.9
20210417003453 69 355 3.0 7.0 0.00 0.04 0.04 94 1007.7
20210417002946 69 34 3.0 7.0 0.00 0.04 0.04 94 1007.6
20210417002801 69 5 2.0 7.0 0.00 0.04 0.04 94 1007.5
20210417002101 69 0 2.0 6.0 0.00 0.04 0.04 95 1007.3
20210417001411 69 41 3.0 7.0 0.00 0.04 0.04 94 1007.3
20210417000910 69 31 3.0 8.0 0.00 0.04 0.04 94 1007.3
20210417000420 70 19 3.0 6.0 0.00 0.04 0.04 95 1007.1
20210417000024 70 340 3.0 6.0 0.00 0.04 0.04 95 1007.0
20210416235812 70 24 3.0 7.0 0.00 0.04 0.04 95 1006.9
20210416234803 70 50 3.0 8.0 0.00 0.04 0.04 95 1006.7
20210416234236 70 18 3.0 8.0 0.01 0.04 0.04 95 1006.7
20210416233732 70 5 3.0 6.0 0.01 0.04 0.04 95 1006.7
20210416233230 70 5 3.0 6.0 0.03 0.04 0.04 95 1006.7
20210416232918 70 26 3.0 6.0 0.04 0.04 0.04 95 1006.7
20210416232538 70 38 3.0 6.0 0.04 0.04 0.04 95 1006.6
20210416231629 70 351 2.0 6.0 0.04 0.04 0.04 95 1006.5
20210416231141 70 49 2.0 6.0 0.04 0.04 0.04 95 1006.4
20210416230603 70 31 3.0 5.0 0.04 0.04 0.04 95 1006.2
20210416230241 70 28 3.0 6.0 0.04 0.04 0.04 95 1006.4
20210416225938 70 21 2.0 6.0 0.04 0.04 0.04 95 1006.6
20210416225218 70 355 2.0 5.0 0.04 0.04 0.04 95 1006.6
20210416224441 70 338 1.0 4.0 0.03 0.03 0.04 95 1006.6
20210416223937 70 355 2.0 4.0 0.03 0.03 0.03 95 1006.8
20210416223435 70 355 2.0 5.0 0.02 0.02 0.02 94 1006.4
20210416222957 70 351 2.0 5.0 0.00 0.00 0.00 94 1006.4
20210416222905 70 331 1.0 4.0 0.00 0.00 0.00 94 1006.4
20210416222146 71 148 1.0 3.0 0.00 0.00 0.00 94 1005.9
20210416221359 71 148 1.0 3.0 0.00 0.00 0.00 94 1005.7
20210416220825 71 136 1.0 3.0 0.00 0.00 0.00 94 1005.8
20210416220321 71 138 2.0 5.0 0.00 0.00 0.00 94 1005.8
20210416220020 71 93 2.0 5.0 0.00 0.00 0.00 93 1005.9
20210416215828 71 59 2.0 5.0 0.00 0.00 0.00 93 1005.8
20210416214901 71 84 2.0 5.0 0.00 0.00 0.00 92 1005.8
20210416214250 71 87 2.0 7.0 0.00 0.00 0.00 91 1005.8
20210416213722 71 94 2.0 7.0 0.00 0.00 0.00 91 1005.7
20210416213222 71 109 2.0 4.0 0.00 0.00 0.00 91 1005.7
20210416212828 71 151 2.0 5.0 0.00 0.00 0.00 91 1005.7
20210416212539 71 313 2.0 5.0 0.00 0.00 0.00 90 1005.8
20210416211641 72 119 2.0 7.0 0.00 0.00 0.00 90 1005.8
20210416211116 72 119 2.0 7.0 0.00 0.00 0.00 90 1005.8
20210416210552 72 112 2.0 6.0 0.00 0.00 0.00 90 1005.8
20210416210049 72 174 2.0 6.0 0.00 0.00 0.00 90 1005.8
20210416205702 72 178 1.0 5.0 0.00 0.00 0.00 90 1005.6
20210416204958 72 93 2.0 7.0 0.00 0.00 0.00 90 1005.8
20210416204448 72 166 2.0 7.0 0.00 0.00 0.00 89 1005.8
20210416203956 72 78 2.0 7.0 0.00 0.00 0.00 89 1005.7
20210416203444 72 77 3.0 8.0 0.00 0.00 0.00 89 1005.8
20210416202939 72 155 3.0 8.0 0.00 0.00 0.00 89 1005.9
20210416202739 72 149 2.0 6.0 0.00 0.00 0.00 89 1005.8
20210416202026 72 93 3.0 9.0 0.00 0.00 0.00 89 1005.9
20210416201348 72 128 2.0 9.0 0.00 0.00 0.00 88 1006.1
20210416200847 72 121 2.0 6.0 0.00 0.00 0.00 88 1006.2
20210416200348 72 98 2.0 6.0 0.00 0.00 0.00 88 1006.1
20210416200049 72 130 2.0 6.0 0.00 0.00 0.00 89 1006.1
20210416195836 72 84 2.0 7.0 0.00 0.00 0.00 89 1006.1
20210416195138 72 122 2.0 7.0 0.00 0.00 0.00 88 1006.1
20210416194250 72 184 3.0 7.0 0.00 0.00 0.00 88 1006.3
20210416193757 72 153 3.0 7.0 0.00 0.00 0.00 88 1006.4
20210416193430 72 142 3.0 6.0 0.00 0.00 0.00 88 1006.3
20210416193230 72 135 3.0 10.0 0.00 0.00 0.00 88 1006.3
20210416192955 72 126 4.0 10.0 0.00 0.00 0.00 88 1006.4
20210416191624 72 109 4.0 10.0 0.00 0.00 0.00 87 1006.5
20210416191122 72 121 2.0 10.0 0.00 0.00 0.00 88 1006.5
20210416190556 72 165 3.0 9.0 0.00 0.00 0.00 87 1006.6
20210416190128 72 130 3.0 9.0 0.00 0.00 0.00 87 1006.7
20210416185650 72 94 4.0 8.0 0.00 0.00 0.00 86 1006.8
20210416184951 72 105 3.0 8.0 0.00 0.00 0.00 86 1006.7
20210416184450 72 192 3.0 8.0 0.00 0.00 0.00 87 1006.7
20210416183922 72 111 3.0 9.0 0.00 0.00 0.00 86 1006.7
20210416183419 72 95 3.0 9.0 0.00 0.00 0.00 86 1006.7
20210416182950 72 159 4.0 11.0 0.00 0.00 0.00 87 1006.8
20210416182758 71 166 5.0 11.0 0.00 0.00 0.00 87 1006.7
20210416181945 71 223 4.0 10.0 0.00 0.00 0.00 88 1006.9
20210416181257 71 118 4.0 10.0 0.00 0.00 0.00 89 1006.9
20210416180730 70 163 4.0 10.0 0.00 0.00 0.00 88 1007.0
20210416180201 70 207 4.0 10.0 0.00 0.00 0.00 90 1007.0
20210416175756 69 196 3.0 10.0 0.00 0.00 0.00 89 1007.1
20210416175243 69 147 4.0 10.0 0.00 0.00 0.00 91 1007.3
20210416174618 69 148 4.0 10.0 0.00 0.00 0.00 90 1007.4
20210416174042 69 84 4.0 9.0 0.00 0.00 0.00 92 1007.4
20210416173530 68 109 3.0 9.0 0.00 0.00 0.00 92 1007.7
20210416173041 68 148 2.0 6.0 0.00 0.00 0.00 93 1007.9
20210416172812 67 134 2.0 6.0 0.00 0.00 0.00 93 1007.9
20210416172236 67 104 3.0 6.0 0.00 0.00 0.00 93 1008.1
20210416171438 67 76 3.0 9.0 0.00 0.00 0.00 93 1007.9
20210416170921 67 65 3.0 9.0 0.00 0.00 0.00 93 1008.0
20210416170412 66 112 3.0 8.0 0.00 0.00 0.00 94 1008.3
20210416170023 66 170 2.0 8.0 0.00 0.00 0.00 94 1008.2
20210416165825 66 53 2.0 7.0 0.00 0.00 0.00 94 1008.4
20210416164835 66 90 2.0 7.0 0.00 0.00 0.00 94 1008.3
20210416164237 65 152 2.0 8.0 0.00 0.00 0.00 94 1008.4
20210416163711 65 109 2.0 8.0 0.00 0.00 0.00 94 1008.6
20210416163143 65 88 2.0 8.0 0.00 0.00 0.00 94 1008.8
20210416162733 65 86 3.0 8.0 0.00 0.00 0.00 94 1008.7
20210416162300 65 134 3.0 9.0 0.00 0.00 0.00 94 1008.7
20210416161620 65 111 3.0 9.0 0.00 0.00 0.00 94 1008.7
20210416161108 65 165 3.0 8.0 0.00 0.00 0.00 94 1008.8
20210416160615 65 163 3.0 10.0 0.00 0.00 0.00 95 1008.8
20210416160045 65 161 3.0 10.0 0.00 0.00 0.00 95 1009.0
20210416155858 64 149 2.0 8.0 0.00 0.00 0.00 95 1009.0
20210416155226 64 137 2.0 7.0 0.00 0.00 0.00 95 1009.1
20210416154442 64 149 3.0 7.0 0.00 0.00 0.00 95 1009.1
20210416153940 64 76 2.0 7.0 0.00 0.00 0.00 95 1009.0
20210416153415 64 114 2.0 8.0 0.00 0.00 0.00 95 1009.0
20210416152909 64 101 3.0 8.0 0.00 0.00 0.00 95 1009.1
20210416152648 64 104 2.0 7.0 0.00 0.00 0.00 95 1009.2
20210416151929 64 108 2.0 8.0 0.00 0.00 0.00 95 1009.2
20210416151341 64 83 3.0 8.0 0.00 0.00 0.00 95 1009.2
20210416150846 63 81 3.0 8.0 0.00 0.00 0.00 95 1009.1
20210416150356 63 143 3.0 10.0 0.00 0.00 0.00 95 1008.9
20210416150149 63 134 3.0 10.0 0.00 0.00 0.00 95 1009.0
20210416145843 63 59 3.0 9.0 0.00 0.00 0.00 95 1009.0
20210416145033 63 76 3.0 7.0 0.00 0.00 0.00 95 1009.0
20210416144245 63 132 3.0 8.0 0.00 0.00 0.00 95 1009.1
20210416143720 62 75 2.0 5.0 0.00 0.00 0.00 95 1009.2
20210416143151 62 108 2.0 8.0 0.00 0.00 0.00 95 1009.4
20210416142908 62 161 3.0 9.0 0.00 0.00 0.00 95 1009.7
20210416142536 62 57 3.0 10.0 0.00 0.00 0.00 95 1009.7
20210416141619 62 85 3.0 10.0 0.00 0.00 0.00 95 1009.7
20210416141051 62 84 3.0 8.0 0.00 0.00 0.00 95 1009.7
20210416140524 62 113 3.0 8.0 0.00 0.00 0.00 95 1009.7
20210416140150 62 87 2.0 7.0 0.00 0.00 0.00 95 1009.7
20210416135926 62 63 3.0 10.0 0.00 0.00 0.00 95 1009.8
20210416135230 62 86 5.0 10.0 0.00 0.00 0.00 95 1009.7
20210416134422 62 66 4.0 9.0 0.00 0.00 0.00 95 1009.9
20210416133959 62 107 4.0 9.0 0.00 0.00 0.00 95 1009.8
20210416133353 62 94 4.0 7.0 0.00 0.00 0.00 95 1009.8
20210416132910 62 98 4.0 10.0 0.00 0.00 0.00 95 1009.8
20210416132731 62 93 4.0 11.0 0.00 0.00 0.00 95 1009.7
20210416131746 62 95 4.0 11.0 0.00 0.00 0.00 95 1009.9
20210416131212 62 115 3.0 8.0 0.00 0.00 0.00 95 1009.9
20210416130722 62 86 4.0 9.0 0.00 0.00 0.00 95 1009.9
20210416130139 62 86 5.0 10.0 0.00 0.00 0.00 95 1009.8
20210416125626 62 97 6.0 14.0 0.00 0.00 0.00 94 1009.9
20210416124545 62 80 5.0 14.0 0.00 0.00 0.00 94 1009.9
20210416124046 62 77 4.0 10.0 0.00 0.00 0.00 94 1010.0
20210416123531 62 96 6.0 11.0 0.00 0.00 0.00 94 1010.0
20210416122952 62 92 6.0 11.0 0.00 0.00 0.00 94 1010.1
20210416122113 62 102 4.0 9.0 0.00 0.00 0.00 94 1010.0
20210416121416 62 98 3.0 8.0 0.00 0.00 0.00 94 1010.0
20210416120909 63 59 3.0 8.0 0.00 0.00 0.00 94 1010.0
20210416120349 63 91 4.0 9.0 0.00 0.01 0.00 94 1010.0
20210416115836 63 35 3.0 8.0 0.00 0.01 0.00 94 1010.0
20210416114915 63 75 3.0 8.0 0.00 0.01 0.00 94 1010.0
20210416114249 63 34 3.0 5.0 0.00 0.01 0.00 94 1009.8
20210416113744 63 92 3.0 7.0 0.00 0.01 0.00 94 1009.8
20210416113243 63 84 4.0 8.0 0.00 0.01 0.00 93 1009.7
20210416112829 63 89 3.0 8.0 0.00 0.01 0.00 93 1009.5
20210416112556 63 97 3.0 8.0 0.00 0.01 0.00 93 1009.5
20210416111837 63 83 4.0 10.0 0.00 0.01 0.00 93 1009.2
20210416111227 63 92 4.0 10.0 0.00 0.01 0.00 93 1009.2
20210416110707 64 78 3.0 9.0 0.00 0.01 0.00 93 1009.3
20210416110139 64 84 3.0 9.0 0.00 0.01 0.00 92 1009.2
20210416105918 64 67 4.0 10.0 0.00 0.01 0.00 92 1009.2
20210416105400 64 76 4.0 10.0 0.00 0.01 0.00 92 1009.2
20210416104612 64 88 4.0 9.0 0.00 0.01 0.00 92 1009.1
20210416104046 64 91 4.0 9.0 0.00 0.01 0.00 91 1009.0
20210416103546 64 87 4.0 8.0 0.00 0.01 0.00 91 1009.0
20210416103138 64 82 4.0 10.0 0.00 0.01 0.00 91 1009.1
20210416102916 64 107 4.0 10.0 0.00 0.01 0.00 91 1009.1
20210416102629 64 80 4.0 9.0 0.00 0.01 0.00 91 1009.2
20210416101520 64 69 3.0 9.0 0.00 0.01 0.00 91 1009.1
20210416101022 64 73 3.0 9.0 0.00 0.01 0.00 91 1009.2
20210416100518 64 109 3.0 9.0 0.00 0.01 0.00 91 1009.2
20210416100031 64 92 3.0 7.0 0.00 0.01 0.00 91 1009.1
20210416095751 64 114 3.0 9.0 0.00 0.01 0.00 91 1009.2
20210416095131 64 99 3.0 8.0 0.00 0.01 0.00 91 1009.0
20210416094403 64 92 3.0 8.0 0.00 0.01 0.00 91 1008.9
20210416093850 64 90 3.0 8.0 0.00 0.01 0.00 91 1008.7
20210416093422 64 62 4.0 8.0 0.00 0.01 0.00 91 1008.5
20210416092919 64 92 4.0 10.0 0.00 0.01 0.00 91 1008.6
20210416092450 64 84 3.0 8.0 0.00 0.01 0.00 91 1008.5
20210416091819 64 93 3.0 8.0 0.00 0.01 0.00 91 1008.5
20210416091317 64 150 2.0 8.0 0.00 0.01 0.00 91 1008.5
20210416090759 64 66 2.0 8.0 0.00 0.01 0.00 92 1008.2
20210416090304 64 211 3.0 8.0 0.00 0.01 0.00 92 1008.4
20210416085848 64 83 4.0 9.0 0.00 0.01 0.00 91 1008.6
20210416085640 64 76 4.0 9.0 0.00 0.01 0.00 91 1008.8
20210416084747 64 97 3.0 8.0 0.00 0.01 0.00 92 1009.0
20210416084157 64 36 2.0 7.0 0.00 0.01 0.00 92 1009.0
20210416083657 64 91 3.0 6.0 0.00 0.01 0.00 92 1009.1
20210416083211 64 97 3.0 7.0 0.00 0.01 0.00 92 1009.2
20210416082858 64 87 3.0 7.0 0.00 0.01 0.00 92 1009.3
20210416082441 64 94 3.0 7.0 0.00 0.01 0.00 92 1009.5
20210416081735 64 34 2.0 6.0 0.00 0.01 0.00 91 1009.5
20210416081133 65 96 2.0 6.0 0.00 0.01 0.00 91 1009.7
20210416080634 65 64 2.0 7.0 0.00 0.01 0.00 91 1009.7
20210416080133 65 79 2.0 7.0 0.00 0.01 0.00 91 1009.7
20210416075743 65 61 2.0 5.0 0.00 0.01 0.00 91 1009.8
20210416075328 65 61 2.0 5.0 0.00 0.01 0.00 91 1009.9
20210416074629 65 36 2.0 5.0 0.00 0.01 0.00 90 1010.0
20210416074106 65 30 2.0 6.0 0.00 0.01 0.00 90 1010.0
20210416073609 65 28 2.0 6.0 0.00 0.01 0.00 90 1010.0
20210416073048 65 57 2.0 5.0 0.00 0.01 0.00 89 1010.0
20210416072633 65 28 1.0 5.0 0.00 0.01 0.00 89 1010.0
20210416072053 65 32 1.0 5.0 0.00 0.01 0.00 89 1010.2
20210416071525 65 67 1.0 3.0 0.00 0.01 0.00 89 1010.2
20210416071057 65 67 1.0 3.0 0.00 0.01 0.00 89 1010.1
20210416070520 65 81 1.0 3.0 0.00 0.01 0.00 89 1010.1
20210416065957 65 84 1.0 4.0 0.00 0.01 0.00 89 1010.2
20210416065546 65 84 2.0 6.0 0.00 0.01 0.00 89 1010.2
20210416064956 65 66 2.0 6.0 0.00 0.01 0.00 89 1010.2
20210416063859 65 66 2.0 5.0 0.00 0.01 0.00 90 1010.2
20210416063437 65 182 2.0 5.0 0.00 0.01 0.00 91 1010.2
20210416062936 65 105 1.0 7.0 0.00 0.01 0.00 91 1010.2
20210416062712 65 95 2.0 7.0 0.00 0.01 0.00 91 1010.2
20210416061913 65 135 3.0 6.0 0.00 0.01 0.00 91 1010.2
20210416061325 65 155 2.0 6.0 0.00 0.01 0.00 91 1010.1
20210416060758 65 130 2.0 6.0 0.00 0.01 0.00 91 1010.4
20210416060258 65 86 2.0 6.0 0.00 0.01 0.00 91 1010.5
20210416055746 65 88 2.0 5.0 0.00 0.01 0.00 91 1010.7
20210416055425 65 76 2.0 5.0 0.00 0.01 0.00 91 1011.0
20210416054726 65 74 2.0 5.0 0.00 0.01 0.00 91 1011.2
20210416054201 65 101 2.0 5.0 0.00 0.01 0.00 91 1011.3
20210416053703 65 355 2.0 5.0 0.00 0.01 0.00 91 1011.5
20210416053159 65 48 2.0 5.0 0.00 0.01 0.00 91 1011.3
20210416052858 65 63 2.0 5.0 0.00 0.01 0.00 91 1011.1
20210416052424 65 48 2.0 4.0 0.00 0.01 0.00 91 1011.2
20210416051615 65 78 2.0 6.0 0.00 0.01 0.00 91 1011.2
20210416051123 65 73 2.0 8.0 0.00 0.01 0.00 91 1011.2
20210416050617 65 90 3.0 8.0 0.00 0.01 0.00 91 1011.1
20210416050133 65 97 3.0 8.0 0.00 0.01 0.00 91 1011.0
20210416045939 65 93 3.0 9.0 0.00 0.01 0.01 91 1011.1
20210416045542 65 39 4.0 9.0 0.00 0.01 0.01 91 1010.9